Tracking 25995 objects as of 19-Aug-2022
HD Live streaming from Space Station
objects crossing your sky now

MIMAN

Track MIMAN now!
10-day predictions


NORAD ID: 52900
Int'l Code: 2022-065G
Perigee: 699.6 km
Apogee: 712.7 km
Inclination: 98.0 °
Period: 98.8 minutes
Semi major axis: 7077 km
RCS: Unknown
Launch date: June 21, 2022
Source: South Korea (SKOR)
Launch site: Naro Space Center, South Korea (NSC)
aabbcc
Your satellite tracking list
Your tracking list is empty




NASA's NSSDC Master Catalog

Two Line Element Set (TLE):
1 52900U 22065G   22230.66925900  .00000263  00000-0  66480-4 0  9996
2 52900  98.0273  19.9186 0009239  78.5462 281.6797 14.58202196  6370
Source of the keplerian elements: AFSPC